User: anonymous   Login
Location: Unspecified
(0.0000°N, 0.0000°E)
Time: 02:06:10
(UTC+00:00)
Language:

CHUBUSAT 2 - Orbit

View from above orbital plane
View from above orbital plane
View from above satellite
View from above satellite

Ground track
Ground track

The orbit data is extracted from the following two-line orbital elements,

1 41338U 16012B   18055.11814636 +.00000353 +00000-0 +20982-4 0  9994
2 41338 031.0037 312.0003 0013704 033.3714 326.7783 14.99923993110848
Epoch (UTC): 24 February 2018 02:50:07
Eccentricity: 0.0013704
inclination: 31.0037°
perigee height: 557 km
apogee height: 576 km
right ascension of ascending node: 312.0003°
argument of perigee: 33.3714°
revolutions per day: 14.99923993
mean anomaly at epoch: 326.7783°
orbit number at epoch: 11084

The dashed part of the orbit path shows where the satellite is in the earth's shadow,  

DLR